Location: Steznica
(49.3078°N, 22.3319°E)
Time: 14:45:26
(UTC+02:00)

ISS - Visible Passes

Search period start: 15 July 2020 00:00
Search period end: 25 July 2020 00:00
Orbit: 417 x 419 km, 51.6° (Epoch: 16 July)

Date Brightness Start Highest point End Pass type
(mag) Time Alt. Az. Time Alt. Az. Time Alt. Az.
15 Jul -3.0 01:05:40 10° WNW 01:08:59 55° N 01:12:18 10° E visible
15 Jul -3.9 02:42:32 10° WNW 02:45:55 81° SSW 02:49:16 10° ESE visible
15 Jul -3.9 22:40:44 10° WSW 22:44:05 71° SSE 22:47:26 10° ENE visible
16 Jul -3.1 00:17:39 10° W 00:20:58 56° N 00:24:17 10° ENE visible
16 Jul -3.7 01:54:35 10° WNW 01:57:57 79° NNE 02:01:18 10° ESE visible
16 Jul -2.9 03:31:34 10° W 03:34:31 28° SW 03:37:27 10° SSE visible
16 Jul -3.6 21:52:53 10° SW 21:56:09 50° SSE 21:59:26 10° ENE visible
16 Jul -3.2 23:29:36 10° W 23:32:56 61° N 23:36:17 10° ENE visible
17 Jul -3.4 01:06:35 10° WNW 01:09:57 65° NNE 01:13:18 10° E visible
17 Jul -3.4 02:43:28 10° WNW 02:46:40 41° SSW 02:49:51 10° SE visible
17 Jul -3.1 21:05:11 10° SW 21:08:16 34° SSE 21:11:22 10° E visible
17 Jul -3.5 22:41:33 10° W 22:44:55 71° NNW 22:48:17 10° ENE visible
18 Jul -3.2 00:18:35 10° WNW 00:21:55 58° N 00:25:15 10° E visible
18 Jul -3.8 01:55:25 10° WNW 01:58:45 60° SSW 02:00:26 26° SE visible
18 Jul-1.203:37:48S03:37:48S03:32:40Wvisible
18 Jul -3.8 21:53:32 10° WSW 21:56:55 88° N 22:00:17 10° ENE visible
18 Jul -3.1 23:30:33 10° WNW 23:33:52 55° N 23:37:11 10° E visible
19 Jul -3.9 01:07:25 10° WNW 01:10:38 78° WSW 01:10:38 78° WSW visible
19 Jul -3.8 21:05:35 10° WSW 21:08:56 70° SSE 21:12:17 10° ENE visible
19 Jul -3.1 22:42:29 10° W 22:45:49 56° N 22:49:08 10° ENE visible
20 Jul -3.7 00:19:25 10° WNW 00:22:47 78° NNE 00:23:15 62° E visible
20 Jul -3.2 21:54:24 10° W 21:57:44 61° N 22:01:06 10° ENE visible
20 Jul -3.4 23:31:24 10° WNW 23:34:45 65° NNE 23:36:16 29° E visible
21 Jul -1.5 01:08:15 10° WNW 01:09:08 16° W 01:09:08 16° W visible
21 Jul -3.5 21:06:19 10° W 21:09:41 72° NNW 21:13:03 10° ENE visible
21 Jul -3.2 22:43:20 10° WNW 22:46:40 57° N 22:49:27 14° E visible
22 Jul -2.7 00:20:11 10° WNW 00:22:20 35° W 00:22:20 35° W visible
22 Jul -3.1 21:55:16 10° WNW 21:58:35 55° N 22:01:54 10° E visible
22 Jul -3.9 23:32:08 10° WNW 23:35:31 84° SSW 23:35:37 81° SSE visible
23 Jul -3.1 21:07:09 10° W 21:10:29 56° N 21:13:48 10° ENE visible
23 Jul -3.7 22:44:05 10° WNW 22:47:28 77° NNE 22:48:57 30° E visible
24 Jul -1.4 00:21:03 10° W 00:21:50 15° W 00:21:50 15° W visible
24 Jul -3.4 21:56:01 10° WNW 21:59:22 64° N 22:02:20 13° E visible
24 Jul -2.7 23:32:52 10° WNW 23:35:14 35° WSW 23:35:14 35° WSW visible
